CW0641 Weather Reports


Display with metric or nautical units.
time (UTC)temp
F
wind
direction
speed
MPH
gust
MPH
rain 1hr
in
rain 24hr
in
rain mn
in
humidity
%
barometer
mb
20260508052221 58 0 3.0 9.0 0.00 0.00 0.00 81 1016.7
20260508050711 57 301 1.0 5.0 0.00 0.00 0.00 89 1016.5
20260508050219 57 325 0.0 3.0 0.00 0.00 0.00 90 1016.5
20260508045711 57 336 0.0 2.0 0.00 0.00 0.00 91 1016.5
20260508045217 57 337 0.0 2.0 0.00 0.00 0.00 91 1016.5
20260508044707 56 338 0.0 2.0 0.00 0.00 0.00 91 1016.3
20260508044213 56 337 0.0 2.0 0.00 0.00 0.00 91 1016.4
20260508043704 56 338 0.0 2.0 0.00 0.00 0.00 91 1016.4
20260508042213 55 338 0.0 2.0 0.00 0.00 0.00 93 1016.3
20260508041659 54 338 0.0 2.0 0.00 0.00 0.00 92 1016.4
20260508041210 53 338 0.0 2.0 0.00 0.00 0.00 91 1016.3
20260508040700 53 338 0.0 2.0 0.00 0.00 0.00 92 1016.2
20260508040211 53 338 0.0 2.0 0.00 0.00 0.00 92 1016.2
20260508035700 52 338 0.0 2.0 0.00 0.00 0.00 92 1016.2
20260508035204 52 338 0.0 2.0 0.00 0.00 0.00 92 1016.2
20260508034701 51 338 0.0 1.0 0.00 0.00 0.00 92 1016.2
20260508034202 51 338 0.0 1.0 0.00 0.00 0.00 91 1016.1
20260508033650 51 338 0.0 0.0 0.00 0.00 0.00 91 1016.0
20260508033201 51 338 0.0 1.0 0.00 0.00 0.00 91 1016.0
20260508032645 51 338 0.0 2.0 0.00 0.00 0.00 91 1016.1
20260508032201 51 338 0.0 2.0 0.00 0.00 0.00 91 1015.9
20260508031645 51 338 0.0 0.0 0.00 0.00 0.00 92 1016.0
20260508031156 51 338 0.0 0.0 0.00 0.00 0.00 91 1016.0
20260508030642 51 338 0.0 1.0 0.00 0.00 0.00 91 1015.9
20260508030155 51 338 0.0 1.0 0.00 0.00 0.00 91 1015.8
20260508025634 51 338 0.0 1.0 0.00 0.00 0.00 91 1015.8
20260508025152 51 338 0.0 1.0 0.00 0.00 0.00 91 1015.7
20260508024631 51 338 0.0 1.0 0.00 0.00 0.00 91 1015.5
20260508024151 51 338 0.0 1.0 0.00 0.00 0.00 91 1015.5
20260508023626 51 338 0.0 2.0 0.00 0.00 0.00 91 1015.4
20260508022610 51 338 0.0 2.0 0.00 0.00 0.00 90 1015.2
20260508022147 51 338 0.0 1.0 0.00 0.00 0.00 91 1015.3
20260508021603 51 338 0.0 0.0 0.00 0.00 0.00 91 1015.1
20260508021143 51 338 0.0 0.0 0.00 0.00 0.00 91 1015.1
20260508020559 51 338 0.0 2.0 0.00 0.00 0.00 91 1015.2
20260508020140 51 338 0.0 2.0 0.00 0.00 0.00 90 1015.1
20260508015600 51 338 0.0 2.0 0.00 0.00 0.00 90 1015.2
20260508015141 51 338 0.0 2.0 0.00 0.00 0.00 90 1015.3
20260508014603 51 338 0.0 3.0 0.00 0.00 0.00 90 1015.2
20260508013556 52 338 1.0 3.0 0.00 0.00 0.00 90 1015.3
20260508013134 52 338 1.0 4.0 0.00 0.00 0.00 90 1015.3
20260508012558 52 338 1.0 4.0 0.00 0.00 0.00 90 1015.4
20260508012129 52 336 1.0 3.0 0.00 0.00 0.00 90 1015.5
20260508011556 52 336 2.0 4.0 0.00 0.00 0.00 90 1015.5
20260508011132 52 336 2.0 4.0 0.00 0.00 0.00 89 1015.7
20260508010552 52 0.0 0.0 0.00 0.00 0.00 89 1015.8
20260508010127 52 0.0 0.0 0.00 0.00 0.00 89 1015.8
20260508005553 52 0.0 0.0 0.00 0.00 0.00 89 1015.8
20260508005125 52 0.0 0.0 0.00 0.00 0.00 89 1015.9
20260508004546 52 0.0 0.0 0.00 0.00 0.00 89 1015.9
20260508003525 52 0.0 0.0 0.00 0.00 0.00 89 1016.0
20260508003125 52 0.0 0.0 0.00 0.00 0.00 89 1015.9
20260508002121 53 0.0 0.0 0.00 0.00 0.00 88 1015.9
20260508001511 53 0.0 0.0 0.00 0.00 0.00 88 1015.9
20260508001119 53 0.0 0.0 0.00 0.00 0.00 88 1015.9
20260508000508 53 0.0 0.0 0.00 0.00 0.00 88 1015.9
20260508000115 53 0.0 0.0 0.00 0.00 0.00 88 1016.0
20260507235114 53 0.0 0.0 0.00 0.00 0.00 87 1016.1
20260507234458 53 0.0 0.0 0.00 0.00 0.00 87 1016.2
20260507234112 53 0.0 0.0 0.00 0.00 0.00 87 1016.3
20260507233452 53 0.0 0.0 0.00 0.00 0.00 86 1016.3
20260507233110 54 0.0 0.0 0.00 0.00 0.00 86 1016.2
20260507232443 54 0.0 0.0 0.00 0.00 0.00 86 1016.2
20260507232108 54 0.0 0.0 0.00 0.00 0.00 85 1016.2
20260507231423 54 0.0 0.0 0.00 0.00 0.00 85 1016.1
20260507231104 54 0.0 0.0 0.00 0.00 0.00 84 1016.3
20260507230413 54 0.0 0.0 0.00 0.00 0.00 84 1016.4
20260507230101 55 0.0 0.0 0.00 0.00 0.00 83 1016.4
20260507225056 55 0.0 0.0 0.00 0.00 0.00 82 1016.5
20260507224401 55 0.0 0.0 0.00 0.00 0.00 82 1016.5
20260507224054 55 0.0 0.0 0.00 0.00 0.00 81 1016.5
20260507222306 56 0.0 0.0 0.00 0.00 0.00 78 1016.6
20260507222054 56 0.0 0.0 0.00 0.00 0.00 77 1016.7
20260507221306 56 279 4.0 7.0 0.00 0.00 0.00 76 1016.7
20260507220048 56 297 3.0 7.0 0.00 0.00 0.00 73 1016.5
20260507215044 57 287 3.0 7.0 0.00 0.00 0.00 71 1016.5
20260507214301 57 282 3.0 7.0 0.00 0.00 0.00 70 1016.5
20260507214046 57 282 3.0 7.0 0.00 0.00 0.00 69 1016.4
20260507213258 57 295 4.0 9.0 0.00 0.00 0.00 68 1016.4
20260507213041 57 295 3.0 9.0 0.00 0.00 0.00 67 1016.4
20260507212039 56 349 3.0 5.0 0.00 0.00 0.00 68 1016.3
20260507211250 56 322 3.0 5.0 0.00 0.00 0.00 68 1016.2
20260507210245 56 331 2.0 5.0 0.00 0.00 0.00 69 1016.2
20260507205245 56 318 1.0 3.0 0.00 0.00 0.00 69 1016.1
20260507205040 56 317 1.0 3.0 0.00 0.00 0.00 69 1016.1
20260507204242 56 316 0.0 3.0 0.00 0.00 0.00 70 1016.1
20260507204031 56 316 1.0 4.0 0.00 0.00 0.00 70 1016.0
20260507203238 56 316 2.0 4.0 0.00 0.00 0.00 70 1016.0
20260507203031 56 315 2.0 4.0 0.00 0.00 0.00 70 1015.9
20260507202230 56 297 1.0 4.0 0.00 0.00 0.00 70 1016.0
20260507202030 56 336 2.0 4.0 0.00 0.00 0.00 70 1015.9
20260507201219 57 336 2.0 4.0 0.00 0.00 0.00 70 1015.9
20260507201029 57 336 2.0 4.0 0.00 0.00 0.00 70 1015.9
20260507200213 57 336 1.0 4.0 0.00 0.00 0.00 70 1015.9
20260507195708 57 355 1.0 3.0 0.00 0.00 0.00 70 1016.0
20260507194657 58 355 2.0 4.0 0.00 0.00 0.00 70 1015.9
20260507194159 58 324 1.0 4.0 0.00 0.00 0.00 70 1015.8
20260507193650 58 324 2.0 4.0 0.00 0.00 0.00 70 1016.0
20260507192644 58 324 2.0 4.0 0.00 0.00 0.00 69 1015.9
20260507192146 58 324 2.0 4.0 0.00 0.00 0.00 69 1015.9
20260507191147 58 339 4.0 8.0 0.00 0.00 0.00 69 1015.9
20260507190644 58 5 5.0 9.0 0.00 0.00 0.00 69 1015.8
20260507190142 58 19 5.0 9.0 0.00 0.00 0.00 69 1015.8
20260507185644 58 338 4.0 9.0 0.00 0.00 0.00 69 1015.9
20260507185141 58 327 4.0 9.0 0.00 0.00 0.00 69 1015.9
20260507184639 58 338 3.0 8.0 0.00 0.00 0.00 70 1015.9
20260507184135 58 329 2.0 9.0 0.00 0.00 0.00 70 1016.0
20260507183635 58 355 3.0 9.0 0.00 0.00 0.00 70 1016.0
20260507183137 58 333 3.0 8.0 0.00 0.00 0.00 70 1016.0
20260507182131 58 281 2.0 6.0 0.00 0.00 0.00 71 1016.0
20260507181627 58 302 3.0 8.0 0.00 0.00 0.00 70 1016.0
20260507181130 59 350 4.0 10.0 0.00 0.00 0.00 70 1015.9
20260507175627 59 11 4.0 8.0 0.00 0.00 0.00 70 1015.7
20260507175127 59 336 4.0 8.0 0.00 0.00 0.00 70 1015.8
20260507174621 59 324 4.0 11.0 0.00 0.00 0.00 69 1015.8
20260507174122 59 300 5.0 11.0 0.00 0.00 0.00 69 1015.7
20260507173622 59 326 6.0 12.0 0.00 0.00 0.00 69 1015.7
20260507173121 60 341 7.0 12.0 0.00 0.00 0.00 70 1015.7
20260507172625 60 355 6.0 12.0 0.00 0.00 0.00 70 1015.7
20260507171120 60 355 5.0 10.0 0.00 0.00 0.00 70 1015.4
20260507170621 60 10 6.0 12.0 0.00 0.00 0.00 71 1015.3
20260507170114 60 350 6.0 12.0 0.00 0.00 0.00 71 1015.3
20260507165615 60 317 6.0 11.0 0.00 0.00 0.00 71 1015.3
20260507165115 61 323 6.0 14.0 0.00 0.00 0.00 71 1015.3
20260507164611 61 343 6.0 14.0 0.00 0.00 0.00 71 1015.2
20260507164108 61 0 7.0 14.0 0.00 0.00 0.00 71 1015.1
20260507163610 61 344 8.0 14.0 0.00 0.00 0.00 70 1015.1
20260507162608 62 346 6.0 12.0 0.00 0.00 0.00 70 1015.1
20260507160603 63 27 7.0 12.0 0.00 0.00 0.00 68 1015.0
20260507155101 64 331 9.0 15.0 0.00 0.00 0.00 67 1014.9
20260507154604 64 341 9.0 15.0 0.00 0.00 0.00 67 1015.0
20260507153604 65 331 7.0 15.0 0.00 0.00 0.00 66 1014.9
20260507153058 65 351 7.0 16.0 0.00 0.00 0.00 65 1015.0
20260507152557 65 24 7.0 16.0 0.00 0.00 0.00 65 1014.9
20260507152059 66 342 7.0 15.0 0.00 0.00 0.00 64 1015.0
20260507151559 66 28 7.0 15.0 0.00 0.00 0.00 64 1015.0
20260507151057 66 336 5.0 13.0 0.00 0.00 0.00 64 1015.0
20260507150553 67 341 5.0 12.0 0.00 0.00 0.00 63 1014.9
20260507150052 67 343 6.0 12.0 0.00 0.00 0.00 63 1015.0
20260507145550 67 350 6.0 11.0 0.00 0.00 0.00 63 1014.9
20260507145050 67 324 7.0 13.0 0.00 0.00 0.00 63 1014.9
20260507144552 67 342 6.0 13.0 0.00 0.00 0.00 62 1015.0
20260507144050 67 5 5.0 13.0 0.00 0.00 0.00 62 1014.9
20260507143551 67 311 6.0 13.0 0.00 0.00 0.00 62 1014.9
20260507143049 67 313 6.0 13.0 0.00 0.00 0.00 62 1015.0
20260507142555 68 30 6.0 15.0 0.00 0.00 0.00 61 1015.0
20260507142049 68 28 7.0 15.0 0.00 0.00 0.00 61 1014.9
20260507141547 68 342 6.0 12.0 0.00 0.00 0.00 61 1015.0
20260507141046 69 322 6.0 14.0 0.00 0.00 0.00 60 1015.0
20260507140542 69 0 7.0 14.0 0.00 0.00 0.00 60 1014.9
20260507140040 69 0 7.0 14.0 0.00 0.00 0.00 60 1015.0
20260507135542 69 324 7.0 15.0 0.00 0.00 0.00 59 1015.1
20260507134539 69 334 6.0 14.0 0.00 0.00 0.00 59 1015.1
20260507133538 69 29 7.0 13.0 0.00 0.00 0.00 59 1015.1
20260507133036 69 355 8.0 13.0 0.00 0.00 0.00 59 1015.1
20260507132537 70 5 6.0 13.0 0.00 0.00 0.00 58 1015.1
20260507132033 70 342 6.0 13.0 0.00 0.00 0.00 58 1015.1
20260507131534 70 347 7.0 13.0 0.00 0.00 0.00 58 1015.2
20260507131033 70 320 7.0 14.0 0.00 0.00 0.00 57 1015.1
20260507130531 71 336 7.0 14.0 0.00 0.00 0.00 57 1015.2
20260507130036 71 333 5.0 11.0 0.00 0.00 0.00 58 1015.1
20260507125532 70 5 6.0 13.0 0.00 0.00 0.00 57 1015.1
20260507125032 71 355 6.0 13.0 0.00 0.00 0.00 55 1015.1
20260507124535 71 9 6.0 13.0 0.00 0.00 0.00 54 1015.1
20260507124027 71 5 6.0 13.0 0.00 0.00 0.00 53 1015.1
20260507123527 72 0 6.0 12.0 0.00 0.00 0.00 52 1015.1
20260507123025 72 10 5.0 11.0 0.00 0.00 0.00 51 1015.1
20260507122527 72 329 4.0 12.0 0.00 0.00 0.00 50 1015.1
20260507122024 73 28 5.0 12.0 0.00 0.00 0.00 47 1015.0
20260507121524 73 5 5.0 11.0 0.00 0.00 0.00 46 1015.1
20260507121026 73 24 3.0 9.0 0.00 0.00 0.00 43 1015.1
20260507120526 73 288 4.0 10.0 0.00 0.00 0.00 41 1015.1
20260507120024 73 306 4.0 10.0 0.00 0.00 0.00 42 1015.1
20260507115524 73 320 2.0 10.0 0.00 0.00 0.00 42 1015.1
20260507115026 73 0 2.0 6.0 0.00 0.00 0.00 41 1015.1
20260507114525 73 351 2.0 8.0 0.00 0.00 0.00 40 1015.1
20260507114025 73 40 3.0 9.0 0.00 0.00 0.00 41 1015.1
20260507113015 73 293 1.0 5.0 0.00 0.00 0.00 42 1015.2
20260507111511 73 337 1.0 6.0 0.00 0.00 0.00 42 1015.4
20260507111013 72 83 2.0 8.0 0.00 0.00 0.00 42 1015.4
20260507110013 71 26 1.0 9.0 0.00 0.00 0.00 43 1015.3
20260507105509 71 294 2.0 9.0 0.00 0.00 0.00 42 1015.3
20260507105011 72 64 2.0 8.0 0.00 0.00 0.00 42 1015.5
20260507104009 73 15 2.0 6.0 0.00 0.00 0.00 40 1015.4
20260507101008 70 48 1.0 5.0 0.00 0.00 0.00 42 1015.8
20260507100510 70 11 1.0 5.0 0.00 0.00 0.00 42 1015.8
20260507100008 70 270 1.0 5.0 0.00 0.00 0.00 42 1016.0
20260507095506 70 42 1.0 4.0 0.00 0.00 0.00 43 1015.9
20260507095007 69 254 1.0 5.0 0.00 0.00 0.00 43 1016.0
20260507094507 69 222 1.0 6.0 0.00 0.00 0.00 43 1016.0
20260507094006 69 175 2.0 6.0 0.00 0.00 0.00 43 1016.2
20260507093004 68 200 1.0 6.0 0.00 0.00 0.00 44 1016.2
20260507092507 69 130 1.0 6.0 0.00 0.00 0.00 44 1016.2
20260507091503 68 34 0.0 4.0 0.00 0.00 0.00 46 1016.4
20260507091001 68 39 1.0 9.0 0.00 0.00 0.00 46 1016.4
20260507090505 67 38 2.0 9.0 0.00 0.00 0.00 46 1016.4
20260507090002 67 147 1.0 7.0 0.00 0.00 0.00 47 1016.4
20260507085500 67 115 1.0 5.0 0.00 0.00 0.00 49 1016.4
20260507084959 67 5 1.0 5.0 0.00 0.00 0.00 47 1016.5
20260507084455 67 86 2.0 5.0 0.00 0.00 0.00 48 1016.5
20260507083954 66 20 2.0 5.0 0.00 0.00 0.00 50 1016.5
20260507083455 66 203 1.0 5.0 0.00 0.00 0.00 51 1016.5
20260507082954 66 301 1.0 4.0 0.00 0.00 0.00 50 1016.6
20260507082451 66 322 1.0 4.0 0.00 0.00 0.00 50 1016.6
20260507081454 65 196 1.0 4.0 0.00 0.00 0.00 53 1016.7
20260507080952 65 167 1.0 4.0 0.00 0.00 0.00 53 1016.7
20260507080451 64 187 1.0 7.0 0.00 0.00 0.00 53 1016.8
20260507075950 65 90 1.0 7.0 0.00 0.00 0.00 51 1016.8
20260507075447 65 105 1.0 6.0 0.00 0.00 0.00 53 1016.8
20260507074447 65 34 1.0 7.0 0.00 0.00 0.00 54 1016.6
20260507073947 64 138 1.0 5.0 0.00 0.00 0.00 53 1016.5
20260507073445 64 175 2.0 5.0 0.00 0.00 0.00 53 1016.5
20260507072944 64 144 2.0 6.0 0.00 0.00 0.00 53 1016.5
20260507072444 64 163 2.0 6.0 0.00 0.00 0.00 53 1016.6
20260507071945 63 172 2.0 7.0 0.00 0.00 0.00 52 1016.5
20260507071445 64 144 2.0 7.0 0.00 0.00 0.00 52 1016.6
20260507070941 64 156 2.0 7.0 0.00 0.00 0.00 52 1016.7
20260507070440 64 150 2.0 7.0 0.00 0.00 0.00 53 1016.7
20260507065935 64 130 1.0 7.0 0.00 0.00 0.00 54 1016.8
20260507065435 63 130 1.0 4.0 0.00 0.00 0.00 53 1016.8
20260507064934 63 307 1.0 4.0 0.00 0.00 0.00 53 1016.7
20260507064431 62 336 1.0 4.0 0.00 0.00 0.00 53 1016.7
20260507063929 62 29 1.0 4.0 0.00 0.00 0.00 53 1016.8
20260507063430 62 27 1.0 4.0 0.00 0.00 0.00 54 1016.7
20260507062930 62 29 1.0 4.0 0.00 0.00 0.00 56 1016.7
20260507062429 61 18 0.0 3.0 0.00 0.00 0.00 57 1016.7
20260507061928 60 246 0.0 4.0 0.00 0.00 0.00 57 1016.6
20260507061422 60 246 1.0 4.0 0.00 0.00 0.00 57 1016.8
20260507060921 60 355 0.0 3.0 0.00 0.00 0.00 59 1016.8
20260507055911 59 355 1.0 3.0 0.00 0.00 0.00 59 1016.7
20260507054911 60 342 1.0 4.0 0.00 0.00 0.00 61 1016.6
20260507053911 58 5 1.0 4.0 0.00 0.00 0.00 64 1016.5
20260507053418 58 5 1.0 5.0 0.00 0.00 0.00 65 1016.5
20260507052911 58 0 1.0 5.0 0.00 0.00 0.00 67 1016.5
20260507052411 57 17 2.0 5.0 0.00 0.00 0.00 67 1016.6